User: anonymous   Login
Location: Augustenthal
(51.7167°N, 10.2833°E)
Time: 02:41:30
(UTC+00:00)
Language:

Cosmos 1703 Rocket - Orbit

View from above orbital plane
View from above orbital plane
View from above satellite
View from above satellite

Ground track
Ground track

The orbit data is extracted from the following two-line orbital elements,

1 16263U 85108B   21207.36629304  .00000097  00000-0  88534-5 0  9994
2 16263  82.5053 146.8309 0021660  87.0543  38.7120 14.83149098905659
Epoch (UTC): 26 July 2021 08:47:27
Eccentricity: 0.0021660
inclination: 82.5053°
perigee height: 604 km
apogee height: 634 km
right ascension of ascending node: 146.8309°
argument of perigee: 87.0543°
revolutions per day: 14.83149098
mean anomaly at epoch: 38.7120°
orbit number at epoch: 90565

The dashed part of the orbit path shows where the satellite is in the earth's shadow,  

DLR